Location: �clusier
(49.9361°N, 2.7869°E)
Time: 07:03:29
(UTC+00:00)

ATLAS CENTAUR R/B - Pass Details

Date: 29 October 2021
Orbit: 452 x 688 km, 64.7° (Epoch: 06 December)

Event Time Altitude Azimuth Distance (km) Brightness Sun altitude
Exits shadow 05:39:39 - 322° (NW) 2,449 4.2 -9.2°
Reaches altitude 10° 05:41:34 10° 340° (NNW) 2,005 3.9 -8.9°
Maximum altitude 05:43:56 14° 11° (N) 1,793 3.9 -8.5°
Drops below altitude 10° 05:46:22 10° 43° (NE) 2,071 4.7 -8.1°
Sets 05:49:53 0° 68° (ENE) 3,022 6.1 -7.6°
